Location: Taupo
(38.6830°S, 176.0830°E)
Time: 16:14:08
(UTC+13:00)

Cosmos 2322 Rocket - Pass Details

Date: 24 January 2019
Orbit: 834 x 849 km, 71.0° (Epoch: 15 February)

Event Time Altitude Azimuth Distance (km) Brightness Sun altitude
Rises 22:56:49 0° 308° (NW) 3,391 5.4 -22.2°
Reaches altitude 10° 22:59:34 10° 297° (WNW) 2,467 4.7 -22.5°
Maximum altitude 23:04:26 29° 238° (WSW) 1,526 4.1 -23.1°
Drops below altitude 10° 23:09:22 10° 178° (S) 2,499 5.3 -23.6°
Sets 23:12:11 0° 167° (SSE) 3,443 6.0 -24.0°
